Volver al catálogo

STARLINK-5315

ActivoComunicacionesVLEO
NORAD 55309·PAYLOAD·🇺🇸 United States

Lanzado Jan 19, 2023 desde Vandenberg Space Force Base

Loading…

Próximos Pases (próximas 24 horas)

TLE

ActualizadoSource: CelesTrak SupGP

Época: Sep 14, 2026, 21:17 UTC

1 55309C 23010AS  26257.88729167  .00059029  00000+0  49456-2 0  2579
2 55309  70.0003 247.2764 0003657 265.6486 172.1554 14.98309217    14

Sigue STARLINK-5315 en tiempo real con AllMySat

Download on the App Store